Location: North Evanston
(42.0634°N, 87.6976°W)
Time: 00:09:24
(UTC+00:00)

Altair - Visible Passes

Search period start: 12 May 2026 00:00
Search period end: 22 May 2026 00:00
Orbit: 1501 x 1682 km, 47.2° (Epoch: 11 May)

Date Brightness Start Highest point End Pass type
(mag) Time Alt. Az. Time Alt. Az. Time Alt. Az.
12 May 8.8 09:59:21 10° SSW 10:07:54 35° SE 10:16:38 10° ENE visible
13 May 8.8 09:34:28 10° S 09:42:45 32° SE 09:51:12 10° ENE visible
14 May 8.9 09:09:39 10° S 09:17:36 29° SE 09:25:44 10° ENE visible
15 May 8.9 08:44:53 10° S 08:52:29 26° SE 09:00:14 10° ENE visible
16 May 9.0 08:20:34 11° S 08:27:22 24° SE 08:34:43 10° E visible
17 May 9.0 07:56:44 13° SSE 08:02:15 21° SE 08:09:06 10° E visible
17 May 7.9 09:55:57 10° SW 10:05:38 66° SE 10:15:37 10° ENE visible
18 May 9.0 07:32:51 14° SSE 07:37:09 19° SE 07:43:27 10° E visible
18 May 7.9 09:30:52 10° SW 09:40:24 62° SE 09:50:18 10° ENE visible
19 May 9.0 07:08:55 14° SE 07:12:04 17° ESE 07:17:41 10° E visible
19 May 7.9 09:06:56 15° SW 09:15:11 58° SE 09:24:58 10° ENE visible
20 May 9.1 06:44:56 14° SE 06:46:59 15° ESE 06:51:46 10° E visible
20 May 8.0 08:42:56 19° SSW 08:49:59 54° SE 08:59:38 10° ENE visible
21 May 9.2 06:20:54 12° SE 06:21:55 13° ESE 06:25:37 10° E visible
21 May 8.0 08:18:53 24° SSW 08:24:47 50° SE 08:34:18 10° ENE visible
